Regional Weather Roundup
Issued by NWS

Home | Current Version | Previous Version | Text Only | Print | Product List | Glossary On
Versions: 1 2 3 4 5 6 7 8 9 10 11 12 13 14 15 16 17 18 19 20 21 22 23 24 25 26 27 28 29 30 31 32 33 34 35 36 37 38 39 40 41 42 43 44 45 46 47 48 49 50
000
ASUS43 KMKX 202010
RWRWI

WISCONSIN REGIONAL WEATHER ROUNDUP
NATIONAL WEATHER SERVICE MILWAUKEE/SULLIVAN WI
200 PM CST FRI JAN 20 2017

NOTE: "FAIR" INDICATES FEW OR NO CLOUDS BELOW 12,000 FEET WITH NO
SIGNIFICANT WEATHER AND/OR OBSTRUCTIONS TO VISIBILITY.

WIZ001-002-006>008-014>016-023>028-202100-
NORTHWEST WISCONSIN

CITY           SKY/WX    TMP DP  RH WIND       PRES   REMARKS
SUPERIOR ARPT  LGT RAIN  34  34 100 E8        29.59F WCI  28
ASHLAND        LGT RAIN  36  34  92 CALM      29.62F FOG
HAYWARD        LGT RAIN  37  35  92 E5        29.60R WCI  33
SIREN          CLOUDY    36  35  96 SE3       29.57F FOG
CUMBERLAND     CLOUDY    34  32  93 SE7       29.57S FOG     WCI  28
RICE LAKE      CLOUDY    36  35  96 SE7       29.59S FOG     WCI  30
CHETEK         CLOUDY    35  35  98 SE6       29.59R FOG     WCI  30
LADYSMITH      DRIZZLE   38  37  97 SE5       29.61S WCI  34
EAU CLAIRE     CLOUDY    36  35  96 SE5       29.58F FOG     WCI  32
MENOMONIE        N/A    N/A N/A N/A MISG        N/A
NEW RICHMOND   FOG       35  35 100 E6        29.55F VSB 3/4 WCI  30
OSCEOLA        CLOUDY    36  36 100 SE7       29.58F FOG     WCI  30
$$

WIZ003>005-009-010-017-018-202100-
NORTH CENTRAL WISCONSIN

CITY           SKY/WX    TMP DP  RH WIND       PRES   REMARKS
MANITOWISH WTR RAIN      36  36 100 E3        29.61S
ARBOR VITAE    RAIN      37  35  94 E6        29.61F WCI  32
WOODRUFF       RAIN      37  35  94 E6        29.61F WCI  32
RHINELANDER    LGT RAIN  36  35  96 E10       29.62S FOG     WCI  28
EAGLE RIVER    RAIN      37  35  90 SE5       29.62S WCI  34
LAND O LAKES   LGT RAIN  39  34  84 CALM      29.64S
PHILLIPS       LGT RAIN  36  36  99 E5        29.59S WCI  32
TOMAHAWK       LGT RAIN  36  35  95 CALM      29.61S
MEDFORD        DRIZZLE   35  34  96 SE6       29.60R WCI  30
MERRILL        LGT RAIN  36  36 100 SE3         N/A
$$

WIZ029-030-035-036-043>047-202100-
CENTRAL WISCONSIN

CITY           SKY/WX    TMP DP  RH WIND       PRES   REMARKS
WAUSAU         LGT RAIN  35  34  96 E12       29.60F WCI  27
MOSINEE        LGT RAIN  36  36 100 E8        29.61F FOG     WCI  29
MARSHFIELD     FOG       34  33  96 SE8       29.60R VSB 3/4 WCI  27
STEVENS POINT  CLOUDY    33  33 100 E9        29.63R FOG     WCI  25
WAUPACA        CLOUDY    37  35  90 CALM      29.64S FOG
WAUTOMA        LGT RAIN  36  34  92 E7        29.63F FOG     WCI  30
WISC RAPIDS    CLOUDY    35  35 100 SE7       29.63S FOG     WCI  29
CAMP DOUGLAS   FOG       36  36 100 E7        29.60S VSB 1   WCI  30
$$

WIZ011>013-019>022-031-037>040-048>050-202100-
NORTHEAST WISCONSIN

CITY           SKY/WX    TMP DP  RH WIND       PRES   REMARKS
ANTIGO         LGT RAIN  33  33 100 E9        29.62F WCI  25
SHAWANO        DRIZZLE   36  34  95 NE3       29.65F
OCONTO         CLOUDY    34  33  98 NE7       29.66F WCI  28
STURGEON BAY   LGT RAIN  34  33  96 N7        29.67F VSB 1/2 WCI  28
GREEN BAY      LGT RAIN  35  35 100 NE10      29.65S FOG     WCI  27
MANITOWOC      CLOUDY    38  36  92 MISG      29.65F FOG
APPLETON         N/A     36  36 100 NE6       29.62  FOG     WCI  31
CLINTONVILLE   DRIZZLE   34  34 100 CALM      29.64F
OSHKOSH        CLOUDY    35  34  96 CALM      29.64S FOG
$$

WIZ032>034-041-042-053>061-202100-
SOUTHWEST WISCONSIN

CITY           SKY/WX    TMP DP  RH WIND       PRES   REMARKS
LA CROSSE      CLOUDY    41  37  86 E3        29.57F FOG
SPARTA         CLOUDY    36  35  99 E6        29.60F FOG     WCI  31
VIROQUA        CLOUDY    36  36 100 SE7       29.57F VSB 1/4 WCI  30
BOSCOBEL       CLOUDY    39  37  92 NE6       29.57F FOG     WCI  35
PRAIRIE DU CHI CLOUDY    38  37  97 CALM      29.57F FOG
PLATTEVILLE    CLOUDY    38  38 100 E7        29.58S VSB 1/4 WCI  33
$$

WIZ056-057-062-063-064-067-068-202100-
SOUTH CENTRAL WISCONSIN

CITY           SKY/WX    TMP DP  RH WIND       PRES   REMARKS
REEDSBURG      CLOUDY    36  36 100 E3        29.59F FOG
BARABOO/DELLS  FOG       35  35  99 E6        29.60F VSB 1   WCI  30
LONE ROCK      FOG       37  36  96 E8        29.59F VSB 3/4 WCI  31
MINERAL POINT  FOG       37  37 100 SE7       29.58S VSB<1/4 WCI  32
MADISON        FOG       37  36  96 SE8       29.61F VSB 3/4 WCI  31
MIDDLETON      CLOUDY    38  38 100 E5        29.60F VSB 1/4 WCI  34
WATERTOWN      CLOUDY    37  37 100 E6        29.61F FOG     WCI  33
MONROE         SNOW      36  36 100 E5        29.58S VSB<1/4 WCI  32
JANESVILLE     FOG       39  39 100 E6        29.59F VSB 1/2 WCI  35
$$

WIZ051-052-058>065-066-070>072-202100-
SOUTHEAST WISCONSIN

CITY           SKY/WX    TMP DP  RH WIND       PRES   REMARKS
MILWAUKEE      FOG       38  37  97 E9        29.63F VSB 1/4 WCI  31
WAUKESHA       CLOUDY    36  36 100 E7        29.63F FOG     WCI  30
MILWAUKEE/TIMM CLOUDY    37  34  87 E5        29.65S FOG     WCI  34
RACINE         FOG       38  37  97 SE6       29.64F VSB 1/4 WCI  33
KENOSHA        FOG       38  37  97 SE6       29.62F VSB 1/4 WCI  33
FOND DU LAC    CLOUDY    38  34  85 E8        29.63F WCI  32
SHEBOYGAN      CLOUDY    37  34  89 E3        29.64S FOG
WEST BEND      CLOUDY    36  36 100 E5        29.63F FOG     WCI  32
JUNEAU         CLOUDY    37  36  96 E5        29.63F FOG     WCI  33
$$

LSZ147-162-202100-
LAKE SUPERIOR

STATION/POSITION TIME  TEMP    WIND        PRES    WAVE
                       AIR SEA DIR/SP/G            HT/PER
                 (UTC) (F)     (DEG/KT/KT) (MB)    (FT/S)
DEVILS ISLAND    2000   35      60/  8/  9 1004.1F
PORT WING        1940   36      90/  2/  5 1003.0S
SAXON HARBOR     1930   35        CALM     1003.4F
$$

LMZ867-665-643>646-202100-
LAKE MICHIGAN

STATION/POSITION TIME  TEMP    WIND        PRES    WAVE
                       AIR SEA DIR/SP/G            HT/PER
                 (UTC) (F)     (DEG/KT/KT) (MB)    (FT/S)
NORTHPORT PIER   1940   33     310/  6/  7 1005.1F
SISTER BAY       1950   34      10/  7/  7   N/A
KEWAUNEE LAKESHO 1948   36      20/ 10/ 14 1003.4F
SHEBOYGAN LAKESH 2000   35     350/  7/  7 1004.2R
PORT WASHINGTON  1940   37      CALM  /  4 1005.1S
KENOSHA   LAKESH 2000   35        CALM     1004.1
$$

TC  - TEMPERATURE IN CELSIUS
VSB - VISIBILITY IN STATUTE MILES
WCI - WIND CHILL INDEX
HX  - HEAT INDEX




USA.gov is the U.S. government's official web portal to all federal, state and local government web resources and services.